CDT,Max TemperatureF,Mean TemperatureF,Min TemperatureF,Max Dew PointF,MeanDew PointF,Min DewpointF,Max Humidity, Mean Humidity, Min Humidity, Max Sea Level PressureIn, Mean Sea Level PressureIn, Min Sea Level PressureIn, Max VisibilityMiles, Mean VisibilityMiles, Min VisibilityMiles, Max Wind SpeedMPH, Mean Wind SpeedMPH, Max Gust SpeedMPH,PrecipitationIn, CloudCover, Events, WindDirDegrees
2013-9-1,68,58,47,55,49,44,100,72,34,30.15,30.09,29.98,15,15,12,12,8,,0.00,2,Rain,41
2013-9-2,77,58,40,57,49,39,100,71,38,30.15,30.07,29.96,15,15,15,10,4,,0.00,2,,165
2013-9-3,82,67,52,63,55,50,100,73,36,30.16,30.00,29.92,15,15,15,14,8,,0.00,4,,342
2013-9-4,68,56,43,48,45,39,93,67,37,30.29,30.23,30.18,15,15,15,8,6,,0.00,5,Rain,96
2013-9-5,87,67,47,68,55,46,93,70,39,30.22,30.10,29.94,15,15,15,14,4,18,0.00,2,,172
2013-9-6,89,74,59,68,63,57,94,72,46,30.03,29.92,29.88,15,14,12,18,5,25,0.00,5,Fog,335
2013-9-7,76,66,57,55,54,48,88,64,35,30.21,30.16,30.04,15,15,15,20,11,25,0.00,5,,50
2013-9-8,70,62,55,55,53,48,94,76,51,30.19,30.04,29.87,15,15,15,12,9,18,0.00,7,Rain,72
2013-9-9,69,64,59,61,57,54,94,80,64,29.85,29.80,29.77,15,15,15,8,6,,0.04,8,Rain,41
2013-9-10,78,64,50,63,57,50,100,82,42,29.96,29.86,29.82,20,12,2,22,7,28,0.01,3,Rain,263
2013-9-11,76,63,50,50,46,41,88,61,23,30.26,30.10,29.96,15,15,15,23,11,32,0.00,3,,315
2013-9-12,71,54,38,50,45,37,100,71,35,30.38,30.32,30.23,15,15,15,9,5,,0.00,2,,292
2013-9-13,82,60,39,57,47,37,93,65,25,30.23,30.03,29.79,15,15,15,20,6,24,0.00,2,,219
2013-9-14,71,58,42,55,48,39,88,61,30,30.19,29.92,29.76,15,15,15,29,13,31,0.01,3,Rain,26
2013-9-15,62,46,31,43,37,32,100,71,30,30.42,30.34,30.21,15,15,15,9,5,20,0.00,1,,55
2013-9-16,73,52,31,50,41,30,93,69,35,30.35,30.18,29.95,15,15,15,17,7,29,0.00,0,,126
2013-9-17,79,62,45,60,53,45,100,73,47,29.94,29.78,29.67,15,15,15,16,8,22,0.00,1,,158
2013-9-18,66,60,53,63,59,54,100,93,83,29.70,29.65,29.61,15,9,2,12,7,18,0.08,7,Rain,90
2013-9-19,57,54,50,59,53,46,100,93,82,29.99,29.80,29.63,15,11,2,17,7,24,0.08,8,Rain-Thunderstorm,332
2013-9-20,53,45,37,46,42,36,100,80,56,30.05,30.02,29.99,15,15,15,15,8,20,0.00,5,,325
2013-9-21,62,47,32,45,39,32,100,81,45,30.06,29.98,29.85,15,12,0,15,6,25,0.00,1,Fog,100
2013-9-22,72,56,39,55,47,37,100,77,52,29.83,29.68,29.52,15,15,15,16,9,28,0.01,6,,98
2013-9-23,67,61,55,63,58,54,100,92,71,29.73,29.56,29.45,15,11,2,23,8,30,19.92,8,Rain-Thunderstorm,105
2013-9-24,69,56,44,54,47,41,94,72,38,29.88,29.83,29.73,15,15,15,17,8,22,0.00,2,,237
2013-9-25,75,59,43,55,49,41,93,72,49,29.88,29.77,29.66,15,15,15,20,8,31,0.00,6,Rain,107
2013-9-26,63,58,51,59,54,43,94,83,58,29.76,29.63,29.57,15,12,5,26,12,33,0.20,7,Rain-Thunderstorm,144
2013-9-27,57,52,46,48,46,43,100,82,60,29.87,29.83,29.78,15,15,12,21,11,29,0.12,7,Rain,274
2013-9-28,63,54,44,48,46,39,100,85,48,29.83,29.73,29.65,15,14,1,16,5,18,0.02,6,Rain,252
2013-9-29,73,53,33,48,42,34,100,69,37,29.72,29.59,29.45,15,15,15,18,7,26,0.00,5,,217
2013-9-30,70,56,41,50,43,37,88,61,26,29.51,29.47,29.43,15,15,15,20,11,25,0.08,4,Rain,240